Back to catalog

LEMUR 2 SQUIRRELCOMM

AliveScienceSSO
NORAD 60578·PAYLOAD·🇺🇸 United States

Launched Aug 16, 2024 from Vandenberg Space Force Base

Loading…

Next Passes (next 24 hours)

TLE

FreshSource: Space-Track

Epoch: Sep 14, 2026, 11:02 UTC

1 60578U 24149DQ  26257.45983147  .00004387  00000-0  28911-3 0  9995
2 60578  97.6656 338.1193 0006708 105.3400 254.8569 15.08007901113857

Track LEMUR 2 SQUIRRELCOMM in real time with AllMySat

Download on the App Store